Theta_e
320 320 320 320 321 321 321 322 322 322 322 322 322 323 323 323 323 320 311 320 324 352 349 324 325 325 327 322 329 329 314 310 314 313 314 319 322 332 335 336 336 337 337 342 346
319 319 319 319 320 320 321 321 322 321 321 321 321 323 324 324 317 314 328 344 348 355 323 317 313 316 312 317 321 321 314 315 321 321 318 321 323 326 329 331 331 335 340 346 347
318 318 318 319 319 319 320 320 320 320 320 321 321 323 324 321 313 312 348 342 352 349 320 317 315 314 309 313 316 320 316 322 322 324 326 325 327 331 328 326 331 330 334 343 344
317 317 317 318 318 319 319 319 319 319 320 320 321 324 324 316 296 316 352 355 356 329 320 315 313 310 308 308 315 317 323 323 322 329 323 324 325 321 328 329 336 336 339 342 341
316 317 317 317 317 318 318 319 318 318 319 320 322 324 316 309 309 323 356 354 336 320 316 312 312 312 309 310 315 318 321 324 326 324 324 325 321 323 328 334 336 336 337 338 340
317 317 317 317 317 318 318 318 318 317 318 320 323 323 311 300 314 320 327 324 319 314 312 313 313 315 311 309 310 321 323 324 325 324 324 320 321 322 331 335 334 334 334 335 336
316 317 317 317 317 317 317 317 316 317 318 319 323 321 314 305 316 320 317 313 314 312 309 314 316 312 311 308 314 322 318 320 323 323 324 329 322 322 329 334 332 333 334 335 335
316 316 317 316 317 316 316 315 315 317 319 319 323 318 305 320 320 318 315 313 314 311 312 314 317 312 308 311 312 312 311 306 315 323 325 323 315 324 331 331 329 332 334 334 335
315 315 316 316 315 315 314 314 316 321 320 323 315 313 309 329 319 319 318 314 311 309 309 317 313 308 309 306 301 304 302 307 310 318 322 320 317 325 328 328 327 330 332 333 333
315 314 314 314 314 313 313 313 316 321 322 324 322 308 311 315 319 320 318 317 309 308 309 307 305 305 304 301 295 300 304 309 308 313 317 319 318 325 327 327 327 328 330 331 332
314 314 314 314 313 312 309 304 303 307 318 312 312 312 315 318 323 317 318 316 308 304 299 304 300 298 304 305 306 306 308 309 312 314 319 318 319 323 327 328 328 328 330 331 332
313 313 313 313 312 311 308 299 302 306 303 315 318 318 320 318 316 319 315 311 304 299 302 300 298 306 311 311 307 305 307 309 313 315 312 318 319 323 326 328 329 329 331 332 334
313 313 313 312 311 308 306 307 312 307 301 307 312 312 313 316 314 314 311 310 303 300 301 298 303 312 311 309 307 303 307 309 310 315 315 317 313 317 325 328 328 330 333 334 334
313 313 312 310 301 303 302 305 309 308 295 302 304 310 313 315 309 319 315 310 303 301 301 300 307 308 309 307 307 298 308 314 313 311 303 313 301 309 318 319 321 326 329 332 334
313 312 311 309 301 302 305 307 308 307 289 308 308 317 312 308 308 309 315 307 303 303 301 300 305 305 305 308 309 304 308 307 313 309 305 308 302 310 312 309 313 321 328 330 334
312 311 310 304 302 304 308 306 303 296 290 306 309 306 306 307 309 311 309 308 308 303 302 303 310 308 308 311 309 311 305 301 301 299 295 304 302 301 308 313 315 318 328 329 332
310 309 308 307 297 301 302 301 294 290 304 303 300 305 303 302 306 307 303 301 300 294 295 301 304 308 310 302 306 304 296 290 290 290 290 295 303 305 314 318 316 318 327 329 332
308 307 306 307 305 305 299 294 288 299 299 305 304 305 301 303 303 306 301 299 301 298 294 294 294 304 307 304 301 299 297 291 287 290 293 298 295 302 316 321 320 322 328 330 330
307 301 302 305 307 301 296 287 291 296 303 303 302 299 299 303 304 304 300 300 303 300 296 293 295 306 307 309 305 300 296 301 295 295 293 296 302 311 316 317 318 318 321 325 329
302 298 301 307 309 300 292 289 294 302 304 303 296 300 297 299 300 301 301 303 303 304 301 297 293 302 307 307 306 304 304 296 293 289 287 294 297 300 310 313 317 317 317 320 327
296 296 304 310 306 296 287 289 296 301 302 301 299 299 300 299 301 301 302 305 307 306 302 301 296 300 302 300 300 301 298 297 297 294 290 289 294 306 314 315 317 318 321 319 323
294 290 305 310 297 295 291 294 299 298 302 301 303 302 301 303 301 302 301 303 309 308 301 300 295 295 298 305 306 304 301 298 294 292 293 293 296 311 313 314 319 320 322 319 321
291 293 303 303 292 293 298 300 301 299 298 299 301 304 305 302 299 304 306 312 309 308 304 303 294 293 294 298 301 303 302 300 297 295 293 293 297 311 310 310 312 312 314 316 320
293 291 298 299 295 295 294 297 299 306 303 304 303 305 303 302 305 302 303 309 311 309 318 310 294 295 294 295 300 298 302 302 299 294 294 296 300 304 309 311 312 313 315 317 320
295 295 294 290 293 292 292 298 300 301 306 304 301 306 304 298 301 303 309 310 312 316 312 302 295 297 299 304 305 304 304 302 298 299 298 299 301 304 310 312 313 315 317 318 318
295 294 295 292 292 294 294 295 298 299 302 301 303 307 305 300 306 305 305 302 304 307 301 299 296 299 300 303 305 302 304 305 305 304 303 302 304 309 313 315 313 315 315 316 318
298 300 296 292 291 292 293 296 297 299 305 309 307 306 304 306 309 309 308 307 308 303 302 300 298 295 294 301 302 300 303 304 306 310 306 299 303 311 310 312 311 312 313 314 316
Wind_Speed
21 21 21 21 20 20 21 21 20 19 18 16 16 13 12 14 16 2 8 13 8 6 3 4 4 5 1 2 4 5 6 5 5 8 4 8 12 12 8 17 10 5 12 16 20
23 23 22 21 21 21 20 20 21 21 20 18 16 14 11 10 4 9 16 16 14 11 5 5 5 1 1 4 6 5 5 10 6 5 6 7 17 13 10 15 13 17 15 18 21
24 24 24 23 22 21 21 21 21 21 20 18 16 14 11 7 4 10 3 22 12 13 5 3 3 2 5 6 7 6 11 10 7 5 9 8 7 2 19 14 26 23 23 23 21
24 24 24 25 24 23 22 21 21 21 21 18 16 13 13 2 6 4 5 9 11 8 3 3 2 3 3 3 5 7 15 15 7 8 7 8 7 6 4 12 21 21 21 20 23
24 24 24 25 26 24 23 21 21 20 19 17 13 11 5 2 14 3 3 9 9 6 7 4 1 2 4 3 6 16 13 16 14 11 9 8 6 9 14 20 19 19 19 19 19
23 23 23 24 24 25 23 22 21 21 18 15 10 9 3 4 8 8 8 8 8 8 7 7 5 5 6 6 3 10 25 22 17 11 8 17 10 7 16 20 19 17 12 15 16
23 24 25 25 25 26 26 24 24 23 17 11 7 3 2 19 3 6 6 4 8 8 5 6 7 2 5 10 4 24 22 14 13 11 8 15 7 7 18 19 20 17 13 11 10
23 24 25 26 26 26 26 27 27 24 13 7 3 1 10 5 6 9 3 5 6 4 5 8 2 4 5 6 7 8 12 9 7 14 10 11 5 10 20 19 17 18 16 14 11
24 24 26 26 27 27 28 30 28 12 4 6 3 3 13 8 4 11 8 7 5 4 6 10 3 7 5 2 6 7 8 13 6 5 9 7 8 12 14 17 17 17 16 16 12
24 25 26 27 27 27 29 29 10 4 3 6 5 3 6 4 6 5 8 11 4 2 4 4 3 2 4 5 5 5 8 17 14 10 4 11 8 19 16 15 17 15 13 13 15
24 25 26 27 28 25 18 9 5 2 2 7 9 8 18 6 6 5 5 6 4 4 5 4 3 6 9 8 6 4 8 14 11 11 8 15 13 19 17 14 14 13 12 13 15
24 25 27 28 29 27 4 2 5 3 13 11 18 17 21 2 9 13 6 7 6 7 4 4 7 11 6 4 6 4 7 9 1 10 8 13 18 18 19 20 18 16 14 15 9
24 25 26 30 32 4 4 7 7 6 5 11 15 13 14 11 16 19 12 8 5 7 6 7 9 6 5 8 5 6 8 10 11 6 7 11 1 9 14 13 13 13 18 19 18
24 24 24 32 5 7 6 7 10 5 4 11 5 10 8 10 8 11 16 10 5 14 5 7 13 9 8 9 6 8 10 15 9 15 8 8 6 7 16 15 11 12 15 17 18
24 24 20 13 7 5 7 13 14 4 5 6 6 4 9 11 3 6 14 5 11 7 8 10 10 12 11 16 7 14 8 12 12 15 8 3 6 11 8 9 11 13 20 20 20
25 24 20 5 2 13 14 15 2 7 10 8 5 6 8 7 6 6 8 5 6 4 3 10 7 8 12 18 10 13 4 7 5 5 2 12 8 5 11 26 19 11 19 18 20
27 28 15 6 7 3 5 4 5 5 6 7 5 7 7 8 8 7 14 11 14 7 9 4 16 12 10 6 8 4 7 2 2 1 8 8 9 13 20 24 17 20 22 21 21
31 32 8 8 9 8 2 5 5 10 16 5 12 14 4 2 8 10 8 12 11 5 3 9 12 14 6 11 11 8 12 9 7 3 6 9 8 14 18 25 19 19 25 21 20
30 4 6 5 12 6 5 4 11 8 4 3 7 6 3 3 3 9 11 16 16 12 14 6 9 8 11 12 11 9 4 11 8 1 4 4 8 8 8 16 16 15 16 20 21
8 5 6 4 15 6 4 7 8 5 7 9 2 4 8 5 7 10 11 14 17 13 9 8 5 8 14 4 7 16 8 4 4 7 4 5 5 7 5 12 11 12 14 17 19
2 6 5 14 6 6 5 9 7 9 11 4 4 9 12 16 15 12 17 12 23 20 13 13 6 15 2 6 12 2 3 4 7 6 7 3 8 8 16 17 17 17 17 14 18
4 5 3 4 4 3 3 5 4 10 9 9 7 14 12 16 24 15 22 14 24 25 13 11 8 14 18 12 9 9 11 8 8 6 2 6 9 5 13 13 17 16 13 10 18
5 6 7 5 3 4 7 9 8 10 11 7 10 14 13 14 12 9 7 9 9 25 21 13 6 8 10 8 4 9 6 7 6 6 7 7 7 2 6 4 8 10 8 9 12
3 5 6 5 3 1 5 7 9 7 11 12 19 19 13 14 7 5 7 6 3 25 31 14 6 11 15 10 5 6 8 8 9 6 7 7 5 4 7 10 8 11 12 10 10
3 5 1 5 4 9 3 6 13 15 7 4 10 2 6 9 6 3 5 8 2 7 21 12 11 7 9 18 10 15 14 9 6 9 10 9 11 11 12 13 13 11 10 10 10
2 4 6 5 7 5 5 3 11 14 9 7 5 8 9 3 4 2 0 3 5 9 4 6 8 10 17 9 8 8 6 11 8 6 1 7 7 11 12 9 7 13 9 8 6
4 5 2 5 5 5 1 10 17 17 9 2 1 3 3 5 11 10 9 6 8 4 5 11 8 6 9 8 7 4 5 5 1 5 5 8 13 12 5 7 9 9 9 10 10
Wind_Direction
353 352 350 347 345 343 340 338 337 337 340 338 333 325 327 315 304 203 238 223 187 161 149 276 252 256 102 257 120 118 97 261 220 152 209 164 124 151 124 133 161 192 140 156 160
350 348 346 344 342 340 337 335 334 334 336 337 333 324 317 328 288 250 233 224 216 161 188 205 255 252 159 243 173 155 138 204 234 177 155 139 132 142 130 148 113 117 133 145 151
348 345 342 340 339 337 335 332 330 330 332 333 332 324 316 327 310 247 258 219 181 184 230 257 288 121 187 183 197 207 218 157 207 146 145 115 116 77 134 143 147 153 149 153 152
346 343 339 336 335 334 331 329 326 326 326 330 329 321 317 268 273 240 315 213 151 173 215 231 249 165 259 259 182 152 211 148 194 163 140 161 98 94 151 156 151 148 142 151 158
342 338 335 332 330 329 326 323 321 319 320 322 324 329 316 316 249 233 120 117 153 181 205 203 273 174 245 274 351 202 126 149 161 152 125 116 94 109 116 135 143 143 146 151 158
337 335 332 329 327 325 323 319 315 311 313 312 313 327 263 270 249 259 132 137 167 179 194 170 217 193 282 269 43 151 135 149 147 136 120 118 136 93 136 140 146 153 145 158 165
335 332 330 328 325 323 320 317 312 307 303 294 293 288 261 238 284 32 120 205 183 182 204 194 225 159 348 325 355 143 130 134 152 152 123 101 68 119 144 150 152 156 160 168 172
335 330 329 326 325 322 320 315 308 305 289 254 253 197 249 251 253 276 184 296 238 253 192 245 169 242 199 260 346 149 113 134 228 150 166 93 152 133 147 151 159 164 174 180 186
333 330 328 326 324 323 320 314 308 307 176 168 149 123 269 301 162 234 165 207 202 262 264 272 254 215 294 105 358 321 149 136 155 259 137 111 145 166 158 156 165 177 183 181 181
330 328 326 325 324 324 321 307 281 76 164 188 252 343 275 245 279 199 188 182 176 185 336 216 163 169 39 89 225 219 101 161 169 176 107 136 169 166 172 169 176 181 188 182 178
328 326 324 324 321 326 335 348 2 19 169 228 236 232 273 259 307 217 207 146 156 111 184 252 115 214 230 199 195 209 138 179 196 151 121 156 160 175 176 183 191 185 174 174 176
328 326 324 323 320 319 287 247 225 73 300 244 247 244 253 220 290 271 155 170 142 202 175 310 222 228 227 214 232 215 192 192 194 160 111 164 171 181 181 195 193 185 173 173 153
328 326 326 323 318 347 213 234 285 344 241 256 225 230 238 177 235 251 161 181 153 196 206 186 242 221 220 268 281 285 193 199 189 145 71 125 177 188 205 197 204 198 182 173 163
327 325 331 331 5 337 269 296 321 300 330 283 237 244 210 172 272 221 189 155 215 198 195 205 246 240 234 244 183 271 216 215 167 156 160 176 208 240 196 195 205 187 183 185 173
325 321 326 329 289 303 277 332 321 59 320 252 238 196 136 151 230 204 175 114 198 185 138 232 219 228 238 239 186 240 216 200 167 175 105 192 100 214 136 210 216 198 196 186 179
320 313 321 302 222 243 309 304 23 47 255 290 200 177 104 152 243 169 165 122 169 199 212 211 250 177 220 247 226 246 253 49 52 96 120 207 155 252 186 208 210 220 198 190 183
316 307 293 260 222 167 313 9 56 174 302 277 29 17 174 168 223 167 182 186 200 165 222 304 243 249 216 242 273 156 68 326 341 110 205 195 188 233 208 215 203 198 193 192 185
317 308 246 199 218 277 343 62 206 221 229 290 341 330 279 162 224 217 170 197 221 129 162 215 258 224 216 189 219 199 154 156 193 253 259 136 212 246 200 206 201 195 191 191 182
320 305 266 228 180 131 103 178 202 204 239 338 12 301 269 253 244 213 179 206 211 175 201 170 249 264 222 224 161 245 147 188 135 82 68 255 301 330 191 194 187 177 173 188 187
315 311 264 150 155 104 97 232 229 210 322 332 165 242 274 292 314 208 207 195 207 192 163 219 272 245 254 188 247 188 179 91 360 162 202 282 259 231 191 182 192 191 184 186 189
9 333 256 132 140 60 194 229 266 265 290 252 224 265 275 292 282 273 219 224 196 207 170 195 141 263 30 212 214 85 128 64 119 138 160 224 268 217 200 187 187 199 208 170 181
356 325 339 136 99 189 211 224 243 258 288 286 277 263 269 298 302 268 219 201 192 203 197 196 171 235 247 248 237 168 173 146 137 233 153 162 264 261 182 184 180 199 200 185 183
319 267 286 127 268 255 278 269 258 265 246 252 256 267 279 284 279 238 201 218 209 202 201 194 212 237 300 333 343 183 169 145 109 91 184 139 255 134 56 112 170 161 187 192 176
306 322 311 27 303 351 5 286 283 271 272 279 278 276 289 271 245 280 282 273 213 204 209 156 143 191 224 213 187 200 174 160 140 137 173 204 193 149 176 166 167 169 164 178 173
219 249 284 321 311 323 270 272 294 304 270 255 294 77 337 271 294 323 321 324 301 251 215 157 184 157 215 222 213 210 192 160 149 182 166 216 180 204 186 178 181 173 168 170 182
309 8 343 276 281 299 280 283 325 308 260 276 253 341 344 295 280 267 311 304 277 325 246 175 222 153 226 235 221 171 204 169 151 137 12 157 212 197 195 154 167 174 160 151 164
326 330 88 279 309 320 21 332 310 317 300 93 292 319 27 311 292 231 225 226 232 272 294 153 144 120 216 157 120 85 134 232 322 54 181 175 222 153 155 180 166 158 157 154 147